Weather in Ust-Kozha

Russia / Arkhangel'skaya Oblast'     63°37′50″N   38°43′32″E
temp.,
°C
wind,
m/s
gust,
m/s
humid.,
%
clouds,
%
prec.,
mm/h
press.,
hPa
HPBL,
m
28 november, sun
sun2800:00−13ne1197100 0.0 101121
03:00−13ne2397100 0.0 101056
06:00−12ene2796100 0.0 1009179
09:00−12ne2894100 0.0 1009244
12:00−12ne3988100 0.0 1008295
15:00−13nne3889100 0.0 1008278
18:00−13nne2791100 0.0 1008261
21:00−13n2792100 0.0 1008236
29 november, mon
mon2900:00−13n2692100 0.0 1008197
03:00−13nnw1393100 0.0 101075
06:00−15nw2296100 0.0 101239
09:00−13nnw1492100 0.0 1013108
12:00−12nne168899 0.0 1014166
15:00−16ne11955 0.0 101510
18:00−16ene279178 0.0 1015118
21:00−15e31085100 0.0 1014242
30 november, tue
tue3000:00−15ene41385100 0.0 1012320
03:00−14ene4158299 0.0 1009449
06:00−13ene51680100 0.0 1005545
09:00−13ene51677100 0.0 1001557
12:00−12ene51581100 0.0 997546
15:00−12ene51484100 0.0 993539
18:00−12ene51487100 0.0 990557
21:00−11ne51388100 0.0 987591
1 december, wed
wed100:00−11ne41186100 0.0 985591
03:00−10ne3109297 0.1 983518
06:00−9ne2893100 0.4 983467
09:00−9ne2694100 0.9 983422
12:00−9ne249392 0.3 984335
15:00−9n1197100 0.6 98420
18:00−10nw009790 0.3 98521
21:00−11wnw119991 0.3 98511
2 december, thu
thu200:00−10w1198100 0.1 98521
03:00−9w1295100 0.4 985126
06:00−9w1296100 0.5 985117
09:00−8ssw129699 0.9 98596
12:00−7wsw259599 0.4 986296
15:00−7wsw41094100 0.9 986538
18:00−7wsw3994100 0.3 988408
21:00−8sw3794100 0.4 990330